• In Hungary
  • List of Countries
  • For 7 days
  • Water Temperature
  • Satellite Maps
  • Weather Map
  • News
  • Weather Widgets
  • user-avatar
    Login

    Hourly Weather Gabrovo

    Today, 17 December, Sunday

    Time Temperature Precipitation Wind Pressure Humidity
    00:00 +6°C° 0.8 mm 2 mps 696 mmHg 84%
    01:00 +6°C° 0.8 mm 2 mps 696 mmHg 84%
    02:00 +5°C° 0 mm 2 mps 696 mmHg 80%
    03:00 +5°C° 0.1 mm 2 mps 695 mmHg 80%
    04:00 +5°C° 0.1 mm 2 mps 695 mmHg 79%
    05:00 +4°C° 0.1 mm 2 mps 695 mmHg 79%
    06:00 +4°C° 0.2 mm 2 mps 695 mmHg 79%
    07:00 +4°C° 0.2 mm 2 mps 695 mmHg 80%
    08:00 +2°C° 0 mm 3 mps 695 mmHg 78%
    09:00 +2°C° 0.2 mm 3 mps 695 mmHg 79%
    10:00 +2°C° 0.2 mm 3 mps 695 mmHg 79%
    11:00 +2°C° 0.2 mm 3 mps 695 mmHg 80%
    12:00 +1°C° 0.2 mm 3 mps 695 mmHg 80%
    13:00 +1°C° 0.2 mm 3 mps 695 mmHg 79%
    14:00 +1°C° 0 mm 3 mps 695 mmHg 81%
    15:00 +1°C° 0.6 mm 3 mps 695 mmHg 81%
    16:00 0°C° 0.6 mm 3 mps 696 mmHg 82%
    17:00 0°C° 0.6 mm 3 mps 696 mmHg 83%
    18:00 0°C° 0.3 mm 3 mps 697 mmHg 83%
    19:00 0°C° 0.3 mm 3 mps 697 mmHg 84%
    20:00 -1°C° 0.3 mm 3 mps 697 mmHg 84%
    21:00 -1°C° 0 mm 3 mps 698 mmHg 85%
    22:00 -1°C° 0 mm 2 mps 698 mmHg 85%
    23:00 -1°C° 0 mm 2 mps 699 mmHg 86%

    Tomorrow, 18 December, Monday

    Time Temperature Precipitation Wind Pressure Humidity
    00:00 -1°C° 0 mm 2 mps 699 mmHg 86%
    01:00 -2°C° 0 mm 2 mps 700 mmHg 87%
    02:00 -2°C° 0 mm 2 mps 700 mmHg 87%
    03:00 -2°C° 0 mm 2 mps 700 mmHg 87%
    04:00 0°C° 0 mm 1 mps 700 mmHg 87%
    05:00 0°C° 0 mm 1 mps 700 mmHg 87%
    06:00 0°C° 0 mm 1 mps 700 mmHg 87%
    07:00 -1°C° 0 mm 1 mps 701 mmHg 87%
    08:00 -2°C° 0 mm 0 mps 701 mmHg 87%
    09:00 0°C° 0 mm 1 mps 701 mmHg 83%
    10:00 +1°C° 0 mm 1 mps 702 mmHg 79%
    11:00 +2°C° 0 mm 1 mps 702 mmHg 75%
    12:00 +2°C° 0 mm 1 mps 702 mmHg 75%
    13:00 +2°C° 0 mm 1 mps 701 mmHg 74%
    14:00 +2°C° 0 mm 2 mps 701 mmHg 74%
    15:00 +1°C° 0.1 mm 2 mps 701 mmHg 77%
    16:00 +2°C° 0.1 mm 1 mps 701 mmHg 80%
    17:00 +1°C° 0.1 mm 1 mps 701 mmHg 83%
    18:00 +1°C° 0.2 mm 1 mps 701 mmHg 84%
    19:00 +1°C° 0.2 mm 1 mps 701 mmHg 85%
    20:00 +1°C° 0.2 mm 1 mps 701 mmHg 86%
    21:00 0°C° 0.3 mm 1 mps 702 mmHg 86%
    22:00 -2°C° 0.3 mm 2 mps 702 mmHg 86%
    23:00 -2°C° 0.3 mm 2 mps 702 mmHg 86%

    Day after tomorrow, 19 December, Tuesday

    Time Temperature Precipitation Wind Pressure Humidity
    00:00 -2°C° 0.5 mm 2 mps 702 mmHg 87%
    01:00 -3°C° 0.5 mm 2 mps 702 mmHg 87%
    02:00 -3°C° 0.5 mm 2 mps 702 mmHg 87%
    03:00 -3°C° 0.5 mm 2 mps 703 mmHg 88%
    04:00 -3°C° 0.5 mm 2 mps 703 mmHg 88%
    05:00 -3°C° 0.5 mm 2 mps 703 mmHg 89%
    06:00 -3°C° 0.4 mm 2 mps 703 mmHg 89%
    07:00 -4°C° 0.4 mm 2 mps 704 mmHg 89%
    08:00 -4°C° 0.4 mm 2 mps 704 mmHg 90%
    09:00 -3°C° 0.3 mm 2 mps 705 mmHg 89%
    10:00 -3°C° 0.3 mm 2 mps 705 mmHg 88%
    11:00 -3°C° 0.3 mm 2 mps 706 mmHg 86%
    12:00 -3°C° 0.3 mm 2 mps 706 mmHg 86%
    13:00 -1°C° 0.3 mm 1 mps 706 mmHg 86%
    14:00 0°C° 0.3 mm 1 mps 706 mmHg 86%
    15:00 -1°C° 0.2 mm 1 mps 706 mmHg 88%
    16:00 -1°C° 0.2 mm 1 mps 706 mmHg 89%
    17:00 -1°C° 0.2 mm 1 mps 706 mmHg 90%
    18:00 -2°C° 0.1 mm 1 mps 707 mmHg 90%
    19:00 -2°C° 0.1 mm 1 mps 707 mmHg 91%
    20:00 -2°C° 0.1 mm 1 mps 707 mmHg 91%
    21:00 -2°C° 0.1 mm 1 mps 707 mmHg 91%
    22:00 -2°C° 0.1 mm 1 mps 707 mmHg 91%
    23:00 -3°C° 0.1 mm 1 mps 708 mmHg 91%

    20 December, Wednesday

    Time Temperature Precipitation Wind Pressure Humidity
    00:00 -3°C° 0.1 mm 1 mps 708 mmHg 90%
    01:00 -3°C° 0.1 mm 1 mps 708 mmHg 90%
    02:00 -3°C° 0.1 mm 1 mps 708 mmHg 90%
    03:00 -3°C° 0 mm 1 mps 708 mmHg 90%
    04:00 -4°C° 0 mm 1 mps 708 mmHg 89%
    05:00 -4°C° 0 mm 1 mps 708 mmHg 89%
    06:00 -4°C° 0 mm 1 mps 708 mmHg 89%
    07:00 -4°C° 0 mm 1 mps 708 mmHg 88%
    08:00 -4°C° 0 mm 1 mps 708 mmHg 88%
    09:00 -3°C° 0 mm 1 mps 709 mmHg 85%
    10:00 -2°C° 0 mm 1 mps 709 mmHg 82%
    11:00 -2°C° 0 mm 1 mps 709 mmHg 79%
    12:00 -1°C° 0 mm 1 mps 709 mmHg 78%
    13:00 -1°C° 0 mm 1 mps 709 mmHg 77%
    14:00 -1°C° 0 mm 1 mps 709 mmHg 76%
    15:00 -2°C° 0 mm 1 mps 709 mmHg 79%
    16:00 -3°C° 0 mm 1 mps 708 mmHg 81%
    17:00 -5°C° 0 mm 0 mps 708 mmHg 84%
    18:00 -4°C° 0 mm 1 mps 709 mmHg 84%
    19:00 -4°C° 0 mm 1 mps 709 mmHg 84%
    20:00 -6°C° 0 mm 1 mps 709 mmHg 84%
    21:00 -6°C° 0 mm 1 mps 709 mmHg 83%
    22:00 -6°C° 0 mm 1 mps 709 mmHg 82%
    23:00 -6°C° 0 mm 1 mps 710 mmHg 82%

    21 December, Thursday

    Time Temperature Precipitation Wind Pressure Humidity
    00:00 -6°C° 0 mm 1 mps 709 mmHg 81%
    01:00 -6°C° 0 mm 1 mps 709 mmHg 81%
    02:00 -6°C° 0 mm 1 mps 709 mmHg 81%
    03:00 -6°C° 0 mm 1 mps 709 mmHg 81%
    04:00 -7°C° 0 mm 1 mps 709 mmHg 80%
    05:00 -7°C° 0 mm 1 mps 709 mmHg 80%
    06:00 -7°C° 0 mm 1 mps 709 mmHg 79%
    07:00 -7°C° 0 mm 1 mps 709 mmHg 78%
    08:00 -7°C° 0 mm 1 mps 709 mmHg 78%
    09:00 -6°C° 0 mm 1 mps 709 mmHg 74%
    10:00 -3°C° 0 mm 1 mps 709 mmHg 70%
    11:00 -2°C° 0 mm 1 mps 710 mmHg 66%
    12:00 -1°C° 0 mm 1 mps 709 mmHg 64%
    13:00 -1°C° 0 mm 1 mps 708 mmHg 63%
    14:00 0°C° 0 mm 1 mps 708 mmHg 61%
    15:00 -2°C° 0 mm 1 mps 708 mmHg 65%
    16:00 -3°C° 0 mm 1 mps 707 mmHg 69%
    17:00 -4°C° 0 mm 1 mps 707 mmHg 73%
    18:00 -4°C° 0 mm 1 mps 707 mmHg 72%
    19:00 -6°C° 0 mm 1 mps 707 mmHg 72%
    20:00 -7°C° 0 mm 2 mps 707 mmHg 71%
    21:00 -7°C° 0 mm 2 mps 707 mmHg 70%
    22:00 -7°C° 0 mm 2 mps 707 mmHg 68%
    23:00 -7°C° 0 mm 2 mps 707 mmHg 67%

    22 December, Friday

    Time Temperature Precipitation Wind Pressure Humidity
    00:00 -7°C° 0 mm 2 mps 707 mmHg 66%
    01:00 -7°C° 0 mm 2 mps 706 mmHg 66%
    02:00 -7°C° 0 mm 2 mps 706 mmHg 65%
    03:00 -6°C° 0 mm 2 mps 706 mmHg 66%
    04:00 -6°C° 0 mm 2 mps 705 mmHg 67%
    05:00 -6°C° 0 mm 2 mps 705 mmHg 67%
    06:00 -5°C° 0 mm 2 mps 705 mmHg 69%
    07:00 -5°C° 0 mm 2 mps 705 mmHg 70%
    08:00 -4°C° 0 mm 2 mps 705 mmHg 72%
    09:00 -3°C° 0 mm 2 mps 705 mmHg 72%
    10:00 -2°C° 0 mm 2 mps 705 mmHg 71%
    11:00 +1°C° 0 mm 2 mps 705 mmHg 71%
    12:00 +1°C° 0 mm 2 mps 705 mmHg 71%
    13:00 +1°C° 0 mm 3 mps 704 mmHg 71%
    14:00 +1°C° 0 mm 3 mps 704 mmHg 70%
    15:00 0°C° 0 mm 3 mps 703 mmHg 73%
    16:00 -1°C° 0 mm 3 mps 703 mmHg 77%
    17:00 -2°C° 0 mm 2 mps 703 mmHg 80%
    18:00 -3°C° 0 mm 2 mps 703 mmHg 80%
    19:00 -3°C° 0 mm 2 mps 703 mmHg 80%
    20:00 -3°C° 0 mm 2 mps 702 mmHg 80%
    21:00 -3°C° 0 mm 2 mps 702 mmHg 80%
    22:00 -3°C° 0 mm 2 mps 702 mmHg 81%
    23:00 -3°C° 0 mm 2 mps 702 mmHg 81%
    Show more